FW4628 Weather Reports


Display with metric or nautical units.
time (UTC)temp
F
wind
direction
speed
MPH
gust
MPH
rain 1hr
in
rain 24hr
in
rain mn
in
humidity
%
barometer
mb
20260507043535 57 20 0.0 0.0 0.00 0.00 0.00 28 1011.6
20260507043356 58 18 0.0 0.0 0.00 0.00 0.00 28 1011.6
20260507043010 57 360 0.0 0.0 0.00 0.00 0.00 29 1011.5
20260507042926 58 9 0.0 0.0 0.00 0.00 0.00 29 1011.6
20260507042522 58 17 0.0 0.0 0.00 0.00 0.00 29 1011.5
20260507042445 58 21 0.0 0.0 0.00 0.00 0.00 29 1011.5
20260507042039 58 13 0.0 0.0 0.00 0.00 0.00 29 1011.4
20260507041919 58 9 0.0 0.0 0.00 0.00 0.00 30 1011.4
20260507041502 58 11 0.0 0.0 0.00 0.00 0.00 30 1011.4
20260507041410 58 360 0.0 0.0 0.00 0.00 0.00 30 1011.4
20260507041038 58 11 0.0 0.0 0.00 0.00 0.00 29 1011.3
20260507040936 59 20 0.0 0.0 0.00 0.00 0.00 30 1011.3
20260507040556 58 360 0.0 0.0 0.00 0.00 0.00 30 1011.2
20260507040431 59 22 0.0 0.0 0.00 0.00 0.00 30 1011.2
20260507040058 58 9 0.0 0.0 0.00 0.00 0.00 30 1011.1
20260507035859 59 9 0.0 0.0 0.00 0.00 0.00 29 1011.2
20260507035525 59 25 0.0 0.0 0.00 0.00 0.00 29 1011.1
20260507035358 59 5 0.0 0.0 0.00 0.00 0.00 29 1011.1
20260507035043 59 348 0.0 0.0 0.00 0.00 0.00 29 1011.0
20260507034918 59 31 0.0 0.0 0.00 0.00 0.00 29 1011.0
20260507034504 59 23 0.0 0.0 0.00 0.00 0.00 29 1010.9
20260507034410 60 5 0.0 0.0 0.00 0.00 0.00 29 1010.9
20260507034036 59 17 0.0 0.0 0.00 0.00 0.00 29 1010.9
20260507033900 60 336 0.0 0.0 0.00 0.00 0.00 29 1010.9
20260507033506 59 5 0.0 0.0 0.00 0.00 0.00 29 1010.8
20260507033424 60 5 0.0 0.0 0.00 0.00 0.00 29 1010.8
20260507033037 59 30 0.0 0.0 0.00 0.00 0.00 29 1010.7
20260507032914 60 355 0.0 0.0 0.00 0.00 0.00 29 1010.7
20260507032506 59 5 0.0 0.0 0.00 0.00 0.00 29 1010.7
20260507032416 60 34 0.0 0.0 0.00 0.00 0.00 29 1010.7
20260507032039 59 9 0.0 0.0 0.00 0.00 0.00 29 1010.6
20260507031911 60 5 0.0 0.0 0.00 0.00 0.00 29 1010.6
20260507031604 59 355 0.0 0.0 0.00 0.00 0.00 30 1010.5
20260507031403 60 355 0.0 0.0 0.00 0.00 0.00 30 1010.6
20260507031025 59 32 0.0 0.0 0.00 0.00 0.00 31 1010.5
20260507030922 60 35 0.0 0.0 0.00 0.00 0.00 31 1010.5
20260507030554 60 16 0.0 0.0 0.00 0.00 0.00 31 1010.4
20260507030414 60 9 0.0 0.0 0.00 0.00 0.00 31 1010.5
20260507030026 60 5 0.0 0.0 0.00 0.00 0.00 32 1010.4
20260507025902 60 360 0.0 0.0 0.00 0.00 0.00 32 1010.5
20260507025554 60 355 0.0 0.0 0.00 0.00 0.00 33 1010.4
20260507025357 61 9 0.0 0.0 0.00 0.00 0.00 33 1010.3
20260507025019 60 355 0.0 0.0 0.00 0.00 0.00 34 1010.3
20260507024919 61 12 0.0 0.0 0.00 0.00 0.00 34 1010.3
20260507024552 60 16 0.0 0.0 0.00 0.00 0.00 34 1010.3
20260507024411 61 14 0.0 0.0 0.00 0.00 0.00 34 1010.2
20260507024025 61 349 0.0 0.0 0.00 0.00 0.00 35 1010.2
20260507023900 61 19 0.0 0.0 0.00 0.00 0.00 36 1010.2
20260507023551 61 346 0.0 0.0 0.00 0.00 0.00 36 1010.2
20260507023425 61 14 0.0 0.0 0.00 0.00 0.00 36 1010.2
20260507023016 61 18 0.0 0.0 0.00 0.00 0.00 37 1010.2
20260507022911 62 22 0.0 0.0 0.00 0.00 0.00 37 1010.2
20260507022548 61 13 0.0 0.0 0.00 0.00 0.00 37 1010.2
20260507022402 62 355 0.0 0.0 0.00 0.00 0.00 38 1010.2
20260507022020 62 336 0.0 0.0 0.00 0.00 0.00 38 1010.2
20260507021942 62 23 0.0 0.0 0.00 0.00 0.00 38 1010.2
20260507021522 62 355 0.0 0.0 0.00 0.00 0.00 39 1010.2
20260507021409 62 360 0.0 0.0 0.00 0.00 0.00 39 1010.2
20260507021058 62 17 0.0 0.0 0.00 0.00 0.00 39 1010.2
20260507020907 63 30 0.0 0.0 0.00 0.00 0.00 39 1010.2
20260507020502 62 13 0.0 0.0 0.00 0.00 0.00 39 1010.2
20260507020401 63 23 0.0 0.0 0.00 0.00 0.00 39 1010.1
20260507020036 63 30 0.0 0.0 0.00 0.00 0.00 39 1010.1
20260507015925 63 360 0.0 0.0 0.00 0.00 0.00 39 1010.3
20260507015516 63 360 0.0 0.0 0.00 0.00 0.00 39 1010.3
20260507015422 63 12 0.0 0.0 0.00 0.00 0.00 39 1010.3
20260507015050 63 23 0.0 0.0 0.00 0.00 0.00 39 1010.3
20260507014916 63 349 0.0 0.0 0.00 0.00 0.00 40 1010.3
20260507014519 63 5 0.0 0.0 0.00 0.00 0.00 40 1010.3
20260507014404 64 17 0.0 0.0 0.00 0.00 0.00 40 1010.4
20260507014050 63 355 0.0 0.0 0.00 0.00 0.00 40 1010.3
20260507013925 64 355 0.0 0.0 0.00 0.00 0.00 40 1010.4
20260507013559 63 345 0.0 0.0 0.00 0.00 0.00 40 1010.3
20260507013423 64 13 0.0 0.0 0.00 0.00 0.00 40 1010.3
20260507013020 64 360 0.0 0.0 0.00 0.00 0.00 40 1010.2
20260507012910 64 24 0.0 0.0 0.00 0.00 0.00 40 1010.2
20260507012559 64 19 0.0 0.0 0.00 0.00 0.00 40 1010.3
20260507012414 64 5 0.0 0.0 0.00 0.00 0.00 40 1010.3
20260507012015 64 19 0.0 0.0 0.00 0.00 0.00 40 1010.1
20260507011913 65 355 0.0 0.0 0.00 0.00 0.00 40 1010.2
20260507011543 65 11 0.0 0.0 0.00 0.00 0.00 40 1010.2
20260507011408 65 360 0.0 0.0 0.00 0.00 0.00 40 1010.2
20260507011021 65 28 0.0 0.0 0.00 0.00 0.00 40 1010.1
20260507010858 65 17 0.0 0.0 0.00 0.00 0.00 39 1010.2
20260507010551 65 11 0.0 0.0 0.00 0.00 0.00 39 1010.2
20260507010401 66 360 0.0 0.0 0.00 0.00 0.00 39 1010.3
20260507010033 66 17 0.0 0.0 0.00 0.00 0.00 38 1010.3
20260507005901 66 360 0.0 0.0 0.00 0.00 0.00 38 1010.2
20260507005508 66 9 0.0 0.0 0.00 0.00 0.00 38 1010.2
20260507005423 67 319 0.0 0.0 0.00 0.00 0.00 38 1010.2
20260507005017 67 5 0.0 0.0 0.00 0.00 0.00 38 1010.1
20260507004901 67 9 0.0 0.0 0.00 0.00 0.00 38 1010.2
20260507004526 67 14 0.0 0.0 0.00 0.00 0.00 37 1010.2
20260507004425 67 355 0.0 0.0 0.00 0.00 0.00 37 1010.2
20260507004100 67 18 0.0 0.0 0.00 0.00 0.00 37 1010.2
20260507003915 67 350 0.0 0.0 0.00 0.00 0.00 37 1010.1
20260507003541 67 30 0.0 0.0 0.00 0.00 0.00 38 1010.1
20260507003413 68 9 0.0 0.0 0.00 0.00 0.00 38 1010.1
20260507003002 67 341 0.0 0.0 0.00 0.00 0.00 38 1010.1
20260507002906 68 9 0.0 0.0 0.00 0.00 0.00 38 1010.1
20260507002533 68 5 0.0 0.0 0.00 0.00 0.00 38 1010.0
20260507002427 68 11 0.0 0.0 0.00 0.00 0.00 38 1010.1
20260507002006 68 15 0.0 0.0 0.00 0.00 0.00 38 1010.1
20260507001920 69 355 0.0 0.0 0.00 0.00 0.00 38 1010.1
20260507001540 68 28 0.0 0.0 0.00 0.00 0.00 38 1010.0
20260507001410 69 28 0.0 0.0 0.00 0.00 0.00 38 1010.1
20260507001017 68 51 0.0 0.0 0.00 0.00 0.00 38 1010.1
20260507000932 69 51 0.0 0.0 0.00 0.00 0.00 38 1010.1
20260507000523 68 27 0.0 0.0 0.00 0.00 0.00 38 1010.0
20260507000359 69 49 0.0 0.0 0.00 0.00 0.00 38 1010.0
20260507000050 68 49 0.0 0.0 0.00 0.00 0.00 38 1010.0
20260506235857 68 44 0.0 0.0 0.00 0.00 0.00 38 1010.0
20260506235518 68 355 0.0 0.0 0.00 0.00 0.00 38 1010.0
20260506235417 68 355 0.0 0.0 0.00 0.00 0.00 38 1010.0
20260506235055 68 355 0.0 0.0 0.00 0.00 0.00 38 1010.1
20260506234912 68 43 0.0 0.0 0.00 0.00 0.00 38 1010.0
20260506234524 68 350 0.0 0.0 0.00 0.00 0.00 38 1010.0
20260506234432 68 26 0.0 0.0 0.00 0.00 0.00 38 1010.0
20260506234036 68 22 0.0 0.0 0.00 0.00 0.00 37 1010.0
20260506233905 68 51 0.0 0.0 0.00 0.00 0.00 37 1010.1
20260506233514 68 26 0.0 0.0 0.00 0.00 0.00 37 1010.0
20260506233432 68 45 0.0 0.0 0.00 0.00 0.00 37 1010.1
20260506233027 68 24 0.0 0.0 0.00 0.00 0.00 37 1010.0
20260506232902 68 86 0.0 0.0 0.00 0.00 0.00 37 1010.1
20260506232551 68 86 0.0 0.0 0.00 0.00 0.00 37 1010.1
20260506232357 68 86 0.0 0.0 0.00 0.00 0.00 36 1010.1
20260506232023 68 92 0.0 0.0 0.00 0.00 0.00 36 1010.1
20260506231937 68 92 0.0 0.0 0.00 0.00 0.00 36 1010.2
20260506231536 68 92 0.0 0.0 0.00 0.00 0.00 36 1010.1
20260506231408 68 92 0.0 0.0 0.00 0.00 0.00 36 1010.2
20260506231008 68 92 0.0 0.0 0.00 0.00 0.00 35 1010.2
20260506230905 68 92 0.0 0.0 0.00 0.00 0.00 35 1010.3
20260506230537 68 92 0.0 0.0 0.00 0.00 0.00 35 1010.3
20260506230424 68 92 0.0 0.0 0.00 0.00 0.00 35 1010.4
20260506230056 67 92 0.0 0.0 0.00 0.00 0.00 35 1010.3
20260506225905 68 92 0.0 0.0 0.00 0.00 0.00 35 1010.4
20260506225504 67 92 0.0 0.0 0.00 0.00 0.00 35 1010.4
20260506225427 68 92 0.0 0.0 0.00 0.00 0.00 34 1010.4
20260506225028 67 78 0.0 0.0 0.00 0.00 0.00 34 1010.4
20260506224917 67 78 0.0 0.0 0.00 0.00 0.00 35 1010.5
20260506224546 67 78 0.0 0.0 0.00 0.00 0.00 35 1010.5
20260506224416 67 79 0.0 0.0 0.00 0.00 0.00 35 1010.5
20260506224016 67 69 0.0 0.0 0.00 0.00 0.00 34 1010.5
20260506223909 68 69 0.0 0.0 0.00 0.00 0.00 34 1010.6
20260506223552 67 69 0.0 0.0 0.00 0.00 0.00 33 1010.6
20260506223405 68 24 0.0 0.0 0.00 0.00 0.00 33 1010.7
20260506223019 67 59 0.0 0.0 0.00 0.00 0.00 33 1010.6
20260506222923 67 59 0.0 0.0 0.00 0.00 0.00 33 1010.7
20260506222531 67 22 0.0 0.0 0.00 0.00 0.00 33 1010.7
20260506222423 67 22 0.0 0.0 0.00 0.00 0.00 33 1010.7
20260506222059 67 44 0.0 0.0 0.00 0.00 0.00 33 1010.7
20260506221909 68 28 0.0 0.0 0.00 0.00 0.00 33 1010.7
20260506221530 67 165 0.0 0.0 0.00 0.00 0.00 32 1010.7
20260506221405 68 165 0.0 0.0 0.00 0.00 0.00 32 1010.8
20260506221007 67 165 0.0 0.0 0.00 0.00 0.00 31 1010.7
20260506220928 67 165 0.0 0.0 0.00 0.00 0.00 31 1010.8
20260506220527 67 165 0.0 0.0 0.00 0.00 0.00 31 1010.8
20260506220419 67 165 0.0 0.0 0.00 0.00 0.00 30 1010.8
20260506220059 66 166 0.0 0.0 0.00 0.00 0.00 30 1010.7
20260506215905 67 166 0.0 0.0 0.00 0.00 0.00 30 1010.7
20260506215544 66 177 0.0 0.0 0.00 0.00 0.00 30 1010.6
20260506215408 67 184 0.0 0.0 0.00 0.00 0.00 30 1010.7
20260506215013 66 205 0.0 0.0 0.00 0.00 0.00 29 1010.6
20260506214903 67 161 0.0 0.0 0.00 0.00 0.00 29 1010.6
20260506214551 66 127 0.0 0.0 0.00 0.00 0.00 29 1010.6
20260506214357 67 126 0.0 0.0 0.00 0.00 0.00 29 1010.7
20260506214016 66 146 0.0 0.0 0.00 0.00 0.00 28 1010.7
20260506213916 66 146 0.0 0.0 0.00 0.00 0.00 29 1010.7
20260506213547 66 146 0.0 0.0 0.00 0.00 0.00 29 1010.7
20260506213406 66 146 0.0 0.0 0.00 0.00 0.00 29 1010.8
20260506213027 66 167 0.0 0.0 0.00 0.00 0.00 28 1010.8
20260506212902 66 200 0.0 0.0 0.00 0.00 0.00 28 1011.0
20260506212600 66 200 0.0 0.0 0.00 0.00 0.00 28 1010.9
20260506212422 66 200 0.0 0.0 0.00 0.00 0.00 28 1011.0
20260506212022 66 200 0.0 0.0 0.00 0.00 0.00 28 1011.0
20260506211911 66 200 0.0 0.0 0.00 0.00 0.00 27 1011.0
20260506211549 65 127 0.0 0.0 0.00 0.00 0.00 27 1011.0
20260506211400 66 127 0.0 0.0 0.00 0.00 0.00 27 1011.1
20260506211027 65 123 0.0 0.0 0.00 0.00 0.00 28 1011.1
20260506210922 66 123 0.0 0.0 0.00 0.00 0.00 28 1011.2
20260506210536 65 236 0.0 0.0 0.00 0.00 0.00 27 1011.2
20260506210412 66 232 0.0 0.0 0.00 0.00 0.00 27 1011.2
20260506205902 66 168 0.0 0.0 0.00 0.00 0.00 26 1011.1
20260506205537 66 164 0.0 0.0 0.00 0.00 0.00 25 1011.1
20260506205426 66 154 0.0 0.0 0.00 0.00 0.00 24 1011.1
20260506205004 65 154 0.0 0.0 0.00 0.00 0.00 23 1011.1
20260506204919 66 154 0.0 0.0 0.00 0.00 0.00 23 1011.1
20260506204540 65 154 0.0 0.0 0.00 0.00 0.00 23 1011.0
20260506204413 66 152 0.0 0.0 0.00 0.00 0.00 22 1011.0
20260506204008 65 163 0.0 0.0 0.00 0.00 0.00 21 1011.0
20260506203907 66 178 0.0 0.0 0.00 0.00 0.00 19 1011.1
20260506203537 65 184 0.0 0.0 0.00 0.00 0.00 19 1011.0
20260506203425 65 179 0.0 0.0 0.00 0.00 0.00 18 1011.0
20260506203050 64 178 0.0 0.0 0.00 0.00 0.00 16 1011.0
20260506202915 65 149 0.0 0.0 0.00 0.00 0.00 16 1011.0
20260506202509 64 181 0.0 0.0 0.00 0.00 0.00 15 1011.1
20260506202401 64 167 0.0 0.0 0.00 0.00 0.00 15 1011.1
20260506202046 63 173 0.0 0.0 0.00 0.00 0.00 13 1011.1
20260506201857 64 167 0.0 0.0 0.00 0.00 0.00 11 1011.2
20260506201518 63 178 0.0 0.0 0.00 0.00 0.00 11 1011.2
20260506201424 63 182 0.0 0.0 0.00 0.00 0.00 12 1011.2
20260506201045 63 228 0.0 0.0 0.00 0.00 0.00 12 1011.2
20260506200914 63 228 0.0 0.0 0.00 0.00 0.00 11 1011.2
20260506200515 63 217 0.0 0.0 0.00 0.00 0.00 8 1011.3
20260506200406 63 217 0.0 0.0 0.00 0.00 0.00 9 1011.3
20260506200051 62 217 0.0 0.0 0.00 0.00 0.00 10 1011.3
20260506195923 63 217 0.0 0.0 0.00 0.00 0.00 11 1011.4
20260506195507 62 217 0.0 0.0 0.00 0.00 0.00 11 1011.4
20260506195409 63 196 0.0 0.0 0.00 0.00 0.00 11 1011.4
20260506195138 62 196 0.0 0.0 0.00 0.00 0.00 10 1011.4
20260506191056 61 242 0.0 0.0 0.00 0.00 0.00 6 1011.3
20260506190854 62 232 0.0 0.0 0.00 0.00 0.00 4 1011.4
20260506190543 61 186 0.0 0.0 0.00 0.00 0.00 5 1011.4
20260506190420 62 233 0.0 0.0 0.00 0.00 0.00 7 1011.5
20260506190002 62 200 0.0 0.0 0.00 0.00 0.00 8 1011.4
20260506185908 62 217 0.0 0.0 0.00 0.00 0.00 7 1011.4
20260506185533 62 234 0.0 0.0 0.00 0.00 0.00 3 1011.4
20260506185357 62 234 0.0 0.0 0.00 0.00 0.00 1 1011.4
20260506185008 61 225 0.0 0.0 0.00 0.00 0.00 100 1011.3
20260506184920 62 223 0.0 0.0 0.00 0.00 0.00 100 1011.3
20260506184542 61 175 0.0 0.0 0.00 0.00 0.00 100 1011.2
20260506184412 61 175 0.0 0.0 0.00 0.00 0.00 100 1011.2
20260506184006 61 177 0.0 0.0 0.00 0.00 0.00 100 1011.3
20260506183902 61 176 0.0 0.0 0.00 0.00 0.00 100 1011.3
20260506183549 60 155 0.0 0.0 0.00 0.00 0.00 100 1011.3
20260506183417 60 174 0.0 0.0 0.00 0.00 0.00 100 1011.3
20260506183100 59 257 0.0 0.0 0.00 0.00 0.00 100 1011.3
20260506182921 60 256 0.0 0.0 0.00 0.00 0.00 100 1011.4
20260506182535 59 256 0.0 0.0 0.00 0.00 0.00 100 1011.4
20260506182414 59 256 0.0 0.0 0.00 0.00 0.00 100 1011.4
20260506182057 58 257 0.0 0.0 0.00 0.00 0.00 100 1011.4
20260506181901 59 256 0.0 0.0 0.00 0.00 0.00 100 1011.4
20260506181533 58 223 0.0 0.0 0.00 0.00 0.00 100 1011.3
20260506181403 58 171 0.0 0.0 0.00 0.00 0.00 100 1011.4
20260506181059 58 121 0.0 0.0 0.00 0.00 0.00 100 1011.3
20260506180854 58 121 0.0 0.0 0.00 0.00 0.00 100 1011.4
20260506180538 58 121 0.0 0.0 0.00 0.00 0.00 100 1011.3
20260506180444 58 121 0.0 0.0 0.00 0.00 0.00 100 1011.4
20260506180101 57 121 0.0 0.0 0.00 0.00 0.00 100 1011.4
20260506175913 58 121 0.0 0.0 0.00 0.00 0.00 100 1011.4
20260506175510 57 121 0.0 0.0 0.00 0.00 0.00 100 1011.3
20260506175403 58 121 0.0 0.0 0.00 0.00 0.00 100 1011.4
20260506175039 57 121 0.0 0.0 0.00 0.00 0.00 100 1011.4
20260506174939 58 121 0.0 0.0 0.00 0.00 0.00 100 1011.4
20260506174555 57 121 0.0 0.0 0.00 0.00 0.00 100 1011.4
20260506174411 58 111 0.0 0.0 0.00 0.00 0.00 100 1011.4
20260506174028 57 111 0.0 0.0 0.00 0.00 0.00 100 1011.3
20260506173907 58 111 0.0 0.0 0.00 0.00 0.00 100 1011.3
20260506173556 57 123 0.0 0.0 0.00 0.00 0.00 100 1011.2
20260506173358 57 123 0.0 0.0 0.00 0.00 0.00 100 1011.2
20260506173035 57 123 0.0 0.0 0.00 0.00 0.00 100 1011.1
20260506172856 57 123 0.0 0.0 0.00 0.00 0.00 100 1011.2
20260506172503 56 123 0.0 0.0 0.00 0.00 0.00 100 1011.1
20260506172419 57 123 0.0 0.0 0.00 0.00 0.00 100 1011.2
20260506172035 56 123 0.0 0.0 0.00 0.00 0.00 100 1011.2
20260506171909 57 123 0.0 0.0 0.00 0.00 0.00 100 1011.1
20260506171602 56 123 0.0 0.0 0.00 0.00 0.00 100 1011.0
20260506171401 57 123 0.0 0.0 0.00 0.00 0.00 100 1011.2
20260506171034 56 123 0.0 0.0 0.00 0.00 0.00 100 1011.2
20260506170901 57 123 0.0 0.0 0.00 0.00 0.00 100 1011.2
20260506170507 56 123 0.0 0.0 0.00 0.00 0.00 100 1011.2
20260506170424 57 123 0.0 0.0 0.00 0.00 0.00 100 1011.3
20260506170050 56 123 0.0 0.0 0.00 0.00 0.00 100 1011.2
20260506165912 57 123 0.0 0.0 0.00 0.00 0.00 100 1011.3
20260506165509 56 123 0.0 0.0 0.00 0.00 0.00 100 1011.2
20260506165409 57 122 0.0 0.0 0.00 0.00 0.00 100 1011.1
20260506165044 56 123 0.0 0.0 0.00 0.00 0.00 100 1011.0
20260506164902 57 123 0.0 0.0 0.00 0.00 0.00 100 1011.1
20260506164508 56 123 0.0 0.0 0.00 0.00 0.00 100 1011.2
20260506164357 57 123 0.0 0.0 0.00 0.00 0.00 100 1011.2
20260506164047 56 123 0.0 0.0 0.00 0.00 0.00 100 1011.1
20260506163855 57 122 0.0 0.0 0.00 0.00 0.00 100 1011.2
20260506163517 56 123 0.0 0.0 0.00 0.00 0.00 100 1011.2
20260506163444 57 123 0.0 0.0 0.00 0.00 0.00 100 1011.2
20260506163034 56 123 0.0 0.0 0.00 0.00 0.00 100 1011.0
20260506162913 57 123 0.0 0.0 0.00 0.00 0.00 100 1011.0
20260506162557 56 123 0.0 0.0 0.00 0.00 0.00 100 1010.9
20260506162432 57 123 0.0 0.0 0.00 0.00 0.00 100 1011.0
20260506162103 56 92 0.0 0.0 0.00 0.00 0.00 100 1010.9
20260506161901 56 92 0.0 0.0 0.00 0.00 0.00 100 1010.9
20260506161541 56 92 0.0 0.0 0.00 0.00 0.00 100 1010.9
20260506161355 56 92 0.0 0.0 0.00 0.00 0.00 100 1011.0
20260506161045 56 92 0.0 0.0 0.00 0.00 0.00 100 1011.0
20260506160855 56 92 0.0 0.0 0.00 0.00 0.00 100 1010.9
20260506160555 55 92 0.0 0.0 0.00 0.00 0.00 100 1010.8
20260506160415 56 92 0.0 0.0 0.00 0.00 0.00 100 1010.7
20260506160026 55 92 0.0 0.0 0.00 0.00 0.00 100 1010.7
20260506155908 56 92 0.0 0.0 0.00 0.00 0.00 100 1010.9
20260506155556 55 92 0.0 0.0 0.00 0.00 0.00 100 1010.7
20260506155356 56 92 0.0 0.0 0.00 0.00 0.00 100 1010.5
20260506155023 55 92 0.0 0.0 0.00 0.00 0.00 100 1010.4
20260506154917 55 92 0.0 0.0 0.00 0.00 0.00 100 1010.3
20260506154604 55 92 0.0 0.0 0.00 0.00 0.00 100 1010.2
20260506154417 55 92 0.0 0.0 0.00 0.00 0.00 100 1010.3
20260506154005 54 60 0.0 0.0 0.00 0.00 0.00 100 1010.6
20260506153907 55 60 0.0 0.0 0.00 0.00 0.00 100 1010.7
20260506153533 54 57 0.0 0.0 0.00 0.00 0.00 100 1010.9
20260506044020 62 313 0.0 0.0 0.00 0.00 0.00 26 1006.7
20260506043914 62 313 0.0 0.0 0.00 0.00 0.00 27 1006.7